This is the latest recevied weather packets stored in our database for station/object DB0RV-13. If no packets are shown the sender has not sent any weather packets the latest 10 day(s).
| Time | Temp. | Humidity | Pressure | Rain* | Wind** | Luminosity | Snow |
|---|---|---|---|---|---|---|---|
| 1777775101 | 10° C | 68% | 1015.5 hPa | - | - | - | - |
| 1777774802 | 10.56° C | 67% | 1015.5 hPa | - | - | - | - |
| 1777774501 | 10.56° C | 66% | 1015.6 hPa | - | - | - | - |
| 1777774201 | 10.56° C | 66% | 1015.6 hPa | - | - | - | - |
| 1777773902 | 10.56° C | 67% | 1015.6 hPa | - | - | - | - |
| 1777773602 | 11.11° C | 64% | 1015.5 hPa | - | - | - | - |
| 1777773301 | 10.56° C | 66% | 1015.6 hPa | - | - | - | - |
| 1777773002 | 10.56° C | 66% | 1015.7 hPa | - | - | - | - |
| 1777772702 | 10° C | 70% | 1015.5 hPa | - | - | - | - |
| 1777772401 | 10° C | 70% | 1015.5 hPa | - | - | - | - |
| 1777772102 | 10° C | 71% | 1015.5 hPa | - | - | - | - |
| 1777771802 | 10° C | 70% | 1015.5 hPa | - | - | - | - |
| 1777771501 | 11.11° C | 66% | 1015.6 hPa | - | - | - | - |
| 1777771202 | 11.11° C | 66% | 1015.5 hPa | - | - | - | - |
| 1777770902 | 11.11° C | 65% | 1015.5 hPa | - | - | - | - |
| 1777770602 | 11.11° C | 64% | 1015.6 hPa | - | - | - | - |
| 1777770302 | 11.67° C | 63% | 1015.5 hPa | - | - | - | - |
| 1777770002 | 11.67° C | 62% | 1015.7 hPa | - | - | - | - |
| 1777769701 | 11.67° C | 62% | 1015.6 hPa | - | - | - | - |
| 1777769402 | 11.67° C | 62% | 1015.6 hPa | - | - | - | - |
| 1777769102 | 12.22° C | 60% | 1015.6 hPa | - | - | - | - |
| 1777768801 | 12.22° C | 60% | 1015.6 hPa | - | - | - | - |
| 1777768502 | 12.78° C | 60% | 1015.6 hPa | - | - | - | - |
| 1777768202 | 12.78° C | 59% | 1015.6 hPa | - | - | - | - |
| 1777767901 | 12.78° C | 60% | 1015.6 hPa | - | - | - | - |
* Rain since midnight (hover to see other rain measurements)
** Current wind speed in m/s (hover to see current wind gust speed)